Location: Unnamed
(48.6007°N, 2.4808°E)
Time: 21:52:57
(UTC+02:00)

NOAA 19 - Visible Passes

Search period start: 23 April 2024 00:00
Search period end: 03 May 2024 00:00
Orbit: 838 x 860 km, 99.1° (Epoch: 23 April)

Date Brightness Start Highest point End Pass type
(mag) Time Alt. Az. Time Alt. Az. Time Alt. Az.
23 Apr 5.4 22:29:30 11° S 22:34:48 70° WSW 22:40:16 10° NNW visible
24 Apr 7.8 00:15:18 10° W 00:16:26 11° W 00:17:34 10° WNW visible
24 Apr 5.2 22:17:02 10° SSE 22:22:30 86° WSW 22:28:00 10° NNW visible
25 Apr 7.6 00:01:13 10° WSW 00:03:56 14° W 00:06:42 10° WNW visible
25 Apr 5.2 22:04:47 10° SSE 22:10:14 77° ENE 22:15:42 10° NNW visible
25 Apr 7.5 23:47:54 10° SW 23:51:29 18° W 23:55:05 10° NW visible
26 Apr 5.3 21:52:37 10° SSE 21:57:59 62° ENE 22:03:22 10° N visible
26 Apr 7.2 23:34:53 10° SW 23:39:02 22° W 23:43:14 10° NW visible
27 Apr 5.5 21:40:31 10° SE 21:45:45 50° ENE 21:51:01 10° N visible
27 Apr 6.9 23:22:02 10° SSW 23:26:38 28° W 23:31:16 10° NW visible
28 Apr 5.8 21:28:29 10° SE 21:33:32 41° ENE 21:38:37 10° N visible
28 Apr 6.5 23:09:19 10° SSW 23:14:15 34° W 23:19:12 10° NNW visible
29 Apr 6.2 22:56:43 10° S 23:01:53 43° W 23:07:04 10° NNW visible
30 Apr 5.8 22:44:13 10° S 22:49:32 54° W 22:54:53 10° NNW visible
01 May 5.5 22:31:47 10° S 22:37:12 68° WSW 22:42:39 10° NNW visible
02 May 7.9 00:18:20 10° W 00:18:52 10° W 00:19:25 10° WNW visible
02 May 5.3 22:19:26 10° SSE 22:24:54 84° WSW 22:30:23 10° NNW visible
